NOAA 16 DEB, 41295

Orbit data source: Space-Track

NOAA 16 DEB, 41295 is space debris in SSO originally from a launch on Thu, 21 Sep 2000 UTC launched from the Air Force Western Test Range (AFWTR). Debris objects in space refer to the collection of defunct objects orbiting the Earth. Examples of debris include non-operational satellites, rocket bodies, and fragments generated from explosions, collisions, or faulty payload assembly.

Loading next visibility...
Identifier
41295, 2000-055GX
Orbit
SSO
Country
Flag of USUS
Related business
Manufacturer
Unknown
Mission
Spacecraft
Bus & Motor
Unknown
Mass
Unknown
Launch date (UTC)
2000-09-21 (25 years ago)
Launch vehicle
Unknown
Launch site
Air Force Western Test Range (AFWTR)
Object type
Payload
Rocket body
Debris
Shape & HBR
Unknown shape, 0.1 m
Radar Cross Section
Small (<0.1 m²)

Expand to show TLE details & history
Last TLE update: 2 days ago

TLE from 2 days ago
0 NOAA 16 DEB
1 41295U 00055GX  26032.88321095  .00002784  00000-0  13058-2 0  9990
2 41295  98.6832  71.4108 0024491 220.7973 139.1371 14.20775540520726
Epoch: 2026-02-01T21:11Z
TLE epoch observation values (Epoch: 2026-02-01T21:11:49.426Z)
Latitude
0.00002°
Longitude
-18.63161°
Altitude
839.006 km
Speed
7.426 km/s
True Right ascension
04h 45m 38s
True Declination
0° 00' 00"
Sunlit
Object was in daylight at epoch
Visualization orbit readout
Latitude
Unknown
Longitude
Unknown
Altitude
Unknown
Speed
Unknown
Apparent Right ascension
Unknown
Apparent Declination
Unknown
Sunlit
N/A
Visualization observer readout
Local Sidereal Time
12:03:13
Azimuth
Unknown
Elevation
Unknown
Doppler factor
Unknown
Orbital elements
Apogee altitude
837.516 km
Perigee altitude
802.259 km
Semi-major axis
7,198.024 km
Eccentricity
0.00245
Inclination
98.6832°
RAAN
71.4108°
Arg. of periapsis
220.7973°
True anomaly
139.32029°
Mean anomaly
139.1371°
Eccentric anomaly
139.22874°
Mean motion
3.55405 °/min
Orbital period
101.29 mins
BSTAR
0.0013058
Loading maneuver chart data...
Computing Atmospheric mass density...
Loading historical data...
Loading historical data...
Loading historical data...
Loading historical data...
Loading historical data...
Loading historical data...
Loading historical data...

Documentation

Showing up to 5 results
|